SCP
-0 0 0 -0 0 0 0 0 0 0 0 0 0 0 0 -0 0 0 0 0 0 0 0 0 0 -0 0 0 0 0 -0 -0 -0 0 -0 0 0 -0 -0 0 -0 -0 -0 -0
0 0 0 -0 -0 -0 0 0 0 -0 -0 0 0 0 0 0 -0 -0 -0 0 0 0 0 0 0 0 0 0 0 0 0 -0 -0 0 0 0 0 0 0 0 -0 -0 -0 -0
0 0 0 -0 -0 0 -0 -0 -0 0 -0 0 0 0 0 0 0 0 -0 0 0 0 0 0 0 0 0 1 1 0 0 0 0 -0 -0 0 -0 0 0 -0 -0 -0 -0 0
-0 -0 0 -0 -0 0 -0 -0 -0 -0 0 0 0 0 0 0 -0 0 0 0 0 0 0 0 0 0 0 0 1 1 0 0 0 0 -0 -0 -0 -0 -0 -0 0 -0 -0 -0
0 0 -0 0 0 -0 -0 -0 -0 0 -0 -0 0 0 0 0 0 0 0 0 0 0 0 0 0 0 -0 -0 0 1 1 1 0 0 0 -0 -0 -0 -0 -0 -0 -0 0 -0
0 0 -0 0 -0 -0 0 -0 0 0 0 -0 -0 0 -0 0 0 0 0 0 0 0 0 0 0 0 0 0 1 0 1 1 1 0 0 0 -0 0 0 0 -0 0 0 0
0 0 0 0 -0 -0 -0 -0 0 0 -0 -0 0 0 0 0 0 0 0 0 0 0 0 0 0 0 1 0 1 1 1 1 1 1 0 0 0 -0 -0 -0 0 0 0 0
0 0 0 0 0 0 -0 -0 0 -0 -0 0 -0 0 0 -0 0 0 0 0 0 -0 0 0 0 0 0 0 1 1 1 1 1 1 0 0 0 0 0 -0 -0 -0 0 0
0 0 0 0 0 0 0 0 0 0 0 -0 0 -0 0 0 0 -0 0 -0 0 -0 0 -0 0 0 0 0 -0 0 0 1 1 1 1 0 0 0 0 -0 -0 0 0 0
0 0 0 0 0 0 -0 -0 0 0 0 0 0 0 0 -0 -0 0 0 0 0 -0 -0 -0 -0 0 0 0 0 0 0 -0 0 0 0 0 0 0 0 0 0 0 0 0
-0 -0 0 0 -0 -0 0 -0 -0 0 0 0 -0 -0 0 -0 -0 -0 -0 0 0 0 0 0 0 0 0 0 0 0 0 0 0 0 0 0 0 0 0 0 0 0 0 1
0 0 0 -0 0 -0 -0 -0 0 0 -0 0 0 0 -0 0 0 -0 -0 0 0 0 0 0 0 0 0 0 0 0 0 0 0 0 0 0 0 0 0 0 0 0 1 1
0 0 0 0 0 0 0 0 0 -0 0 0 -0 0 -0 -0 -0 -0 -0 0 0 0 0 0 0 0 0 0 0 0 0 0 0 0 0 1 1 1 1 1 1 1 1 2
0 0 0 0 -0 0 0 0 -0 0 0 0 0 -0 0 -0 0 -0 -0 -0 -1 -1 -1 -0 -1 1 1 2 2 2 2 2 1 1 1 1 1 1 1 1 2 2 3 4
0 0 0 -0 0 0 0 0 0 -0 0 0 0 -0 0 -0 -0 -0 -1 -1 -1 -2 -1 -0 0 1 1 2 2 2 3 2 1 1 1 1 1 1 0 0 0 0 0 1
0 0 0 0 0 0 0 -0 -0 0 -0 -0 -0 0 0 0 -0 -1 0 -0 -0 -0 -1 -0 0 0 0 1 1 1 1 1 1 1 1 1 0 0 0 0 0 0 0 0
0 0 0 0 0 0 0 0 -0 -0 0 -0 0 0 0 0 -0 -0 0 0 -0 -0 0 0 0 0 0 0 1 1 0 0 0 0 0 0 0 0 0 0 0 0 0 0
0 0 0 0 0 0 0 0 0 0 0 -0 -0 0 0 1 0 1 1 0 0 0 0 0 0 0 0 0 0 0 0 0 0 0 0 0 0 0 0 0 0 0 0 0
0 0 0 0 0 0 0 0 0 0 0 0 1 1 1 1 0 1 1 0 0 0 0 0 0 0 0 0 0 0 0 0 0 0 0 0 0 0 0 0 0 0 0 0
0 0 0 0 0 0 0 0 0 0 1 0 0 1 0 0 1 1 0 0 0 0 0 0 0 0 0 0 0 0 0 0 0 0 0 0 0 0 0 0 0 0 0 0
0 0 0 0 0 0 0 0 0 0 0 0 1 1 0 1 0 0 0 0 0 0 0 0 0 0 0 0 0 0 0 0 0 0 0 0 0 0 0 0 -0 -0 0 0
0 0 0 0 0 0 0 0 0 0 0 1 1 1 0 -2 -0 0 0 0 0 0 0 0 0 0 0 0 0 0 0 0 0 0 0 0 0 0 0 0 0 -0 -0 0
0 0 0 0 0 0 0 0 0 0 1 1 1 -0 -1 -1 -0 0 0 0 0 0 0 0 0 0 0 0 0 0 0 0 0 0 0 0 0 0 0 0 0 0 0 -0
0 0 0 0 0 0 0 0 0 0 0 1 0 1 -0 -0 0 0 0 0 0 0 0 0 0 1 0 0 0 0 0 0 0 0 0 0 0 0 0 0 0 0 0 0
0 0 0 0 0 0 0 0 0 1 1 1 1 0 -0 -0 0 0 0 0 0 0 0 0 0 0 0 0 0 0 0 0 0 0 0 0 0 0 0 0 0 0 0 0
0 0 0 0 -0 1 0 0 0 0 1 1 0 0 -0 -0 -0 0 0 0 1 0 0 0 0 0 0 0 0 0 0 0 0 0 0 0 0 0 0 0 0 0 0 -0
Wind_Speed_500mb
17 8 11 21 23 40 19 33 28 31 22 24 18 26 26 41 44 41 43 41 47 46 37 36 36 33 28 19 37 31 26 27 17 12 22 17 12 16 17 14 15 11 8 11
13 15 20 26 31 41 37 28 10 18 35 17 25 23 20 26 40 51 52 47 53 52 50 43 48 43 37 31 26 39 33 26 19 17 15 15 18 17 13 13 13 14 11 6
14 16 24 19 29 24 31 15 11 3 24 14 34 11 18 15 34 52 53 53 50 61 59 58 55 57 49 45 40 34 36 31 26 22 21 15 13 12 22 19 17 7 12 15
15 39 22 35 36 21 24 31 39 35 25 7 19 7 8 15 14 29 47 64 55 58 62 66 59 62 59 54 48 41 32 30 30 32 24 16 14 21 19 13 11 11 10 7
28 18 18 12 10 15 9 56 56 38 28 1 17 12 11 18 15 16 31 64 62 60 61 66 62 61 60 56 53 49 37 27 33 37 32 22 24 16 15 22 13 19 15 15
22 33 17 12 5 32 19 27 39 32 20 5 20 6 11 18 21 16 28 31 56 68 65 58 59 55 57 59 54 47 43 32 28 37 40 33 24 26 22 20 17 16 15 11
20 22 13 11 18 15 25 16 9 13 9 10 10 6 15 23 18 20 26 31 23 55 69 57 51 60 49 55 57 46 41 36 29 40 44 41 31 32 33 30 26 20 18 19
12 12 12 11 5 11 13 13 9 10 7 14 17 0 5 19 42 56 46 36 35 22 59 55 56 51 54 48 49 43 35 33 30 36 41 45 39 35 33 37 36 30 24 23
13 14 10 17 15 17 6 15 28 18 15 11 10 7 14 18 18 29 41 35 50 41 54 42 52 50 49 47 43 36 30 29 24 29 42 43 40 39 34 30 29 27 28 34
17 10 16 17 20 15 27 31 14 6 6 8 15 12 13 14 15 19 24 50 58 47 38 36 37 42 40 38 37 34 30 28 24 23 37 46 46 41 37 33 32 39 34 32
18 4 17 19 14 22 5 15 9 14 7 10 7 6 17 16 18 20 33 59 55 51 44 37 36 31 29 27 30 29 28 25 26 26 27 30 35 44 43 42 44 48 45 40
20 7 9 26 18 18 12 8 16 11 11 6 8 7 18 17 15 46 40 51 54 47 41 40 35 31 27 22 28 26 20 24 17 15 16 22 30 36 38 35 35 37 45 51
19 8 7 10 7 9 5 12 12 16 11 16 13 7 16 29 34 52 49 45 48 50 48 44 39 35 32 24 32 30 18 18 24 26 23 26 34 43 47 47 46 45 52 50
27 13 12 12 20 16 13 12 14 16 10 4 10 17 16 18 23 35 51 53 66 65 59 57 51 42 31 27 32 30 20 4 34 31 37 34 39 42 46 51 53 52 60 54
17 14 3 10 6 4 19 33 26 15 11 12 25 26 19 21 23 43 65 70 68 62 58 51 44 35 25 12 3 6 8 13 10 8 18 18 20 38 42 47 43 47 48 43
13 6 7 9 10 8 17 39 31 27 19 10 18 15 22 46 64 58 58 66 63 57 51 45 35 26 19 12 7 5 8 10 17 19 20 15 19 25 30 40 51 52 47 35
12 12 6 11 13 24 22 20 37 17 16 16 33 25 26 26 45 50 54 60 59 48 37 32 26 21 15 8 4 4 8 7 12 15 15 24 25 26 31 37 43 46 36 26
12 13 8 9 5 13 8 12 22 27 40 36 35 25 46 50 57 61 54 55 49 40 30 22 17 14 9 9 10 9 13 12 11 10 11 14 16 20 23 28 33 35 33 35
20 11 8 9 6 12 2 5 10 25 26 41 44 46 65 71 74 52 47 45 43 36 27 20 21 20 17 20 18 20 20 19 19 22 23 23 25 30 35 38 41 41 41 41
18 14 10 11 10 16 17 10 20 25 12 49 68 56 63 65 23 13 49 47 47 43 32 24 22 25 24 24 18 16 21 23 28 29 27 23 24 30 36 41 44 42 35 33
9 5 14 8 7 10 1 22 35 16 17 67 83 77 69 21 43 68 60 52 45 41 32 25 24 29 27 19 13 20 26 30 27 22 19 17 19 25 33 39 45 46 48 45
9 12 9 7 8 11 4 18 20 16 47 72 73 69 61 81 82 70 55 49 45 40 33 29 34 31 18 13 13 25 24 20 15 15 18 16 18 22 30 32 34 41 42 43
8 12 8 16 12 13 24 34 48 50 74 79 91 98 103 90 84 69 64 48 45 34 36 32 30 27 17 13 22 25 19 14 12 19 23 24 20 21 29 30 31 34 40 46
10 12 5 11 5 20 37 43 48 78 95 95 101 97 92 86 79 75 68 62 51 37 34 33 28 25 23 21 22 20 18 15 14 17 21 20 22 27 25 27 30 30 32 33
11 14 11 4 11 2 40 46 61 81 95 97 94 92 93 92 80 77 69 57 48 49 44 30 29 26 24 22 20 17 15 16 9 8 17 18 16 16 21 23 26 28 26 27
20 11 9 9 7 14 27 61 71 78 92 101 97 86 84 83 82 72 68 62 59 52 39 30 30 28 26 26 19 15 16 13 10 17 9 2 5 10 18 21 19 24 27 33
Wind_Direction_500mb
174 120 201 191 160 161 218 194 227 192 175 154 159 151 158 162 158 156 157 159 158 164 171 173 175 178 176 173 169 174 191 183 168 160 174 191 199 189 202 198 210 227 211 232
290 207 240 161 194 195 226 244 340 123 178 173 165 155 159 166 164 168 167 173 175 175 180 180 182 182 189 190 187 178 192 205 186 167 185 201 211 199 195 199 194 211 219 225
196 237 254 214 200 200 230 184 174 98 1 114 133 134 151 187 162 172 178 180 188 182 184 187 188 194 193 197 200 198 195 204 175 176 199 182 138 186 179 196 208 252 207 219
228 230 232 248 167 182 67 102 92 33 46 322 333 170 162 172 197 179 184 184 187 190 192 193 191 198 197 204 206 207 209 197 187 179 206 218 217 185 210 224 233 224 245 270
245 232 235 265 119 83 135 92 90 100 133 234 316 108 222 166 208 196 207 186 190 194 191 196 198 200 205 206 210 209 214 211 198 193 191 203 192 197 209 214 216 220 269 287
243 268 201 224 109 118 148 107 106 96 109 309 264 133 211 182 191 189 207 212 200 195 189 194 203 193 202 207 207 210 215 220 212 198 195 205 207 209 212 219 222 238 253 279
262 256 201 175 106 50 82 58 19 49 10 241 188 79 218 198 184 169 192 209 188 186 190 190 191 191 191 202 203 208 217 219 218 213 200 207 204 210 218 222 227 229 244 263
217 266 217 126 118 128 50 100 90 41 0 300 25 76 198 145 156 166 177 180 134 123 179 186 184 178 185 193 198 203 215 224 229 229 216 216 220 225 230 235 243 252 232 249
201 242 168 153 131 136 204 66 131 140 240 274 216 109 71 128 142 154 145 123 127 128 141 151 177 175 180 184 197 205 217 233 243 237 226 225 228 235 238 240 237 233 242 246
254 176 231 193 174 116 154 147 81 19 205 315 146 145 181 171 161 165 139 129 134 136 141 143 163 173 182 188 199 209 222 235 250 257 233 234 236 240 243 246 241 247 248 242
243 218 284 154 187 168 167 144 160 123 143 238 157 202 190 177 173 156 138 138 146 147 142 148 162 171 178 191 201 213 223 234 245 257 242 236 248 255 260 257 249 248 243 244
224 230 223 181 194 202 197 149 136 147 173 154 161 250 145 157 131 93 127 143 141 138 139 147 145 155 162 185 203 217 229 238 251 262 247 252 252 260 267 270 268 263 257 247
211 254 267 252 149 221 180 77 87 95 49 165 148 214 105 85 85 104 102 102 134 134 134 133 142 154 155 168 203 212 229 251 253 255 255 252 256 258 265 269 269 273 268 258
175 235 176 202 193 177 126 160 160 126 126 193 196 131 112 115 109 104 104 90 88 91 114 105 99 107 111 106 96 155 162 173 246 262 251 251 252 258 261 261 261 275 273 267
151 220 9 303 242 340 169 131 109 108 154 127 162 139 157 141 118 106 100 98 89 90 91 91 89 86 84 90 135 163 200 225 203 200 219 239 259 255 261 268 266 270 289 298
174 193 75 312 273 332 281 150 141 142 203 161 142 117 126 116 108 100 102 100 96 96 98 99 101 102 100 110 130 222 246 266 260 260 261 295 303 303 288 280 280 297 315 332
148 121 84 262 324 323 225 176 168 185 181 158 128 145 123 106 105 107 104 105 107 106 104 106 105 102 126 135 106 233 280 300 305 314 324 316 319 321 322 322 313 307 329 329
166 138 115 260 315 263 178 96 146 119 111 115 117 113 108 109 105 110 117 117 114 115 116 119 120 121 111 99 113 94 65 71 53 43 34 29 17 7 358 352 349 345 337 331
171 152 148 135 203 268 185 169 117 132 150 130 116 109 109 107 103 103 122 125 123 122 126 120 120 119 108 91 81 79 75 76 69 65 56 42 29 20 16 12 4 357 350 350
179 155 129 136 181 225 213 172 133 104 105 133 126 127 126 119 113 139 132 131 130 134 140 134 125 119 105 98 89 84 77 74 75 68 56 44 33 31 30 31 29 22 11 9
171 183 177 193 198 278 234 144 119 96 208 145 141 142 140 134 144 142 142 138 143 146 152 147 124 111 105 102 79 81 78 73 70 59 45 36 31 44 45 44 41 38 46 52
133 142 189 170 147 246 311 155 135 189 145 146 139 146 140 132 136 145 150 153 154 152 149 131 118 114 112 95 91 94 84 71 60 46 31 51 65 54 48 43 47 50 49 51
202 165 176 167 204 190 120 114 135 135 126 131 133 137 137 135 140 145 149 154 149 140 135 135 132 132 128 93 97 104 102 103 73 61 61 67 80 54 53 58 57 51 51 51
209 164 165 57 290 140 128 131 127 133 136 137 139 139 143 140 144 146 147 149 150 145 138 140 138 132 119 105 100 94 92 81 79 72 59 77 72 57 51 49 48 45 43 45
190 130 177 233 292 140 160 146 142 134 140 138 144 146 145 147 148 151 152 154 151 147 159 163 157 147 134 120 111 101 89 90 110 87 70 57 45 41 36 24 28 31 33 34
33 345 138 221 163 139 163 148 149 140 145 148 146 145 152 155 152 154 152 153 157 163 169 162 148 135 122 128 119 120 118 99 72 83 93 357 348 8 4 360 14 30 52 49
Wind_Speed_850mb
17 8 11 21 23 40 19 33 28 31 22 24 18 26 26 41 44 41 43 41 47 46 37 36 36 33 28 19 37 31 26 27 17 12 22 17 12 16 17 14 15 11 8 11
13 15 20 26 31 41 37 28 10 18 35 17 25 23 20 26 40 51 52 47 53 52 50 43 48 43 37 31 26 39 33 26 19 17 15 15 18 17 13 13 13 14 11 6
14 16 24 19 29 24 31 15 11 3 24 14 34 11 18 15 34 52 53 53 50 61 59 58 55 57 49 45 40 34 36 31 26 22 21 15 13 12 22 19 17 7 12 15
15 39 22 35 36 21 24 31 39 35 25 7 19 7 8 15 14 29 47 64 55 58 62 66 59 62 59 54 48 41 32 30 30 32 24 16 14 21 19 13 11 11 10 7
28 18 18 12 10 15 9 56 56 38 28 1 17 12 11 18 15 16 31 64 62 60 61 66 62 61 60 56 53 49 37 27 33 37 32 22 24 16 15 22 13 19 15 15
22 33 17 12 5 32 19 27 39 32 20 5 20 6 11 18 21 16 28 31 56 68 65 58 59 55 57 59 54 47 43 32 28 37 40 33 24 26 22 20 17 16 15 11
20 22 13 11 18 15 25 16 9 13 9 10 10 6 15 23 18 20 26 31 23 55 69 57 51 60 49 55 57 46 41 36 29 40 44 41 31 32 33 30 26 20 18 19
12 12 12 11 5 11 13 13 9 10 7 14 17 0 5 19 42 56 46 36 35 22 59 55 56 51 54 48 49 43 35 33 30 36 41 45 39 35 33 37 36 30 24 23
13 14 10 17 15 17 6 15 28 18 15 11 10 7 14 18 18 29 41 35 50 41 54 42 52 50 49 47 43 36 30 29 24 29 42 43 40 39 34 30 29 27 28 34
17 10 16 17 20 15 27 31 14 6 6 8 15 12 13 14 15 19 24 50 58 47 38 36 37 42 40 38 37 34 30 28 24 23 37 46 46 41 37 33 32 39 34 32
18 4 17 19 14 22 5 15 9 14 7 10 7 6 17 16 18 20 33 59 55 51 44 37 36 31 29 27 30 29 28 25 26 26 27 30 35 44 43 42 44 48 45 40
20 7 9 26 18 18 12 8 16 11 11 6 8 7 18 17 15 46 40 51 54 47 41 40 35 31 27 22 28 26 20 24 17 15 16 22 30 36 38 35 35 37 45 51
19 8 7 10 7 9 5 12 12 16 11 16 13 7 16 29 34 52 49 45 48 50 48 44 39 35 32 24 32 30 18 18 24 26 23 26 34 43 47 47 46 45 52 50
27 13 12 12 20 16 13 12 14 16 10 4 10 17 16 18 23 35 51 53 66 65 59 57 51 42 31 27 32 30 20 4 34 31 37 34 39 42 46 51 53 52 60 54
17 14 3 10 6 4 19 33 26 15 11 12 25 26 19 21 23 43 65 70 68 62 58 51 44 35 25 12 3 6 8 13 10 8 18 18 20 38 42 47 43 47 48 43
13 6 7 9 10 8 17 39 31 27 19 10 18 15 22 46 64 58 58 66 63 57 51 45 35 26 19 12 7 5 8 10 17 19 20 15 19 25 30 40 51 52 47 35
12 12 6 11 13 24 22 20 37 17 16 16 33 25 26 26 45 50 54 60 59 48 37 32 26 21 15 8 4 4 8 7 12 15 15 24 25 26 31 37 43 46 36 26
12 13 8 9 5 13 8 12 22 27 40 36 35 25 46 50 57 61 54 55 49 40 30 22 17 14 9 9 10 9 13 12 11 10 11 14 16 20 23 28 33 35 33 35
20 11 8 9 6 12 2 5 10 25 26 41 44 46 65 71 74 52 47 45 43 36 27 20 21 20 17 20 18 20 20 19 19 22 23 23 25 30 35 38 41 41 41 41
18 14 10 11 10 16 17 10 20 25 12 49 68 56 63 65 23 13 49 47 47 43 32 24 22 25 24 24 18 16 21 23 28 29 27 23 24 30 36 41 44 42 35 33
9 5 14 8 7 10 1 22 35 16 17 67 83 77 69 21 43 68 60 52 45 41 32 25 24 29 27 19 13 20 26 30 27 22 19 17 19 25 33 39 45 46 48 45
9 12 9 7 8 11 4 18 20 16 47 72 73 69 61 81 82 70 55 49 45 40 33 29 34 31 18 13 13 25 24 20 15 15 18 16 18 22 30 32 34 41 42 43
8 12 8 16 12 13 24 34 48 50 74 79 91 98 103 90 84 69 64 48 45 34 36 32 30 27 17 13 22 25 19 14 12 19 23 24 20 21 29 30 31 34 40 46
10 12 5 11 5 20 37 43 48 78 95 95 101 97 92 86 79 75 68 62 51 37 34 33 28 25 23 21 22 20 18 15 14 17 21 20 22 27 25 27 30 30 32 33
11 14 11 4 11 2 40 46 61 81 95 97 94 92 93 92 80 77 69 57 48 49 44 30 29 26 24 22 20 17 15 16 9 8 17 18 16 16 21 23 26 28 26 27
20 11 9 9 7 14 27 61 71 78 92 101 97 86 84 83 82 72 68 62 59 52 39 30 30 28 26 26 19 15 16 13 10 17 9 2 5 10 18 21 19 24 27 33
Wind_Direction_850mb
174 120 201 191 160 161 218 194 227 192 175 154 159 151 158 162 158 156 157 159 158 164 171 173 175 178 176 173 169 174 191 183 168 160 174 191 199 189 202 198 210 227 211 232
290 207 240 161 194 195 226 244 340 123 178 173 165 155 159 166 164 168 167 173 175 175 180 180 182 182 189 190 187 178 192 205 186 167 185 201 211 199 195 199 194 211 219 225
196 237 254 214 200 200 230 184 174 98 1 114 133 134 151 187 162 172 178 180 188 182 184 187 188 194 193 197 200 198 195 204 175 176 199 182 138 186 179 196 208 252 207 219
228 230 232 248 167 182 67 102 92 33 46 322 333 170 162 172 197 179 184 184 187 190 192 193 191 198 197 204 206 207 209 197 187 179 206 218 217 185 210 224 233 224 245 270
245 232 235 265 119 83 135 92 90 100 133 234 316 108 222 166 208 196 207 186 190 194 191 196 198 200 205 206 210 209 214 211 198 193 191 203 192 197 209 214 216 220 269 287
243 268 201 224 109 118 148 107 106 96 109 309 264 133 211 182 191 189 207 212 200 195 189 194 203 193 202 207 207 210 215 220 212 198 195 205 207 209 212 219 222 238 253 279
262 256 201 175 106 50 82 58 19 49 10 241 188 79 218 198 184 169 192 209 188 186 190 190 191 191 191 202 203 208 217 219 218 213 200 207 204 210 218 222 227 229 244 263
217 266 217 126 118 128 50 100 90 41 0 300 25 76 198 145 156 166 177 180 134 123 179 186 184 178 185 193 198 203 215 224 229 229 216 216 220 225 230 235 243 252 232 249
201 242 168 153 131 136 204 66 131 140 240 274 216 109 71 128 142 154 145 123 127 128 141 151 177 175 180 184 197 205 217 233 243 237 226 225 228 235 238 240 237 233 242 246
254 176 231 193 174 116 154 147 81 19 205 315 146 145 181 171 161 165 139 129 134 136 141 143 163 173 182 188 199 209 222 235 250 257 233 234 236 240 243 246 241 247 248 242
243 218 284 154 187 168 167 144 160 123 143 238 157 202 190 177 173 156 138 138 146 147 142 148 162 171 178 191 201 213 223 234 245 257 242 236 248 255 260 257 249 248 243 244
224 230 223 181 194 202 197 149 136 147 173 154 161 250 145 157 131 93 127 143 141 138 139 147 145 155 162 185 203 217 229 238 251 262 247 252 252 260 267 270 268 263 257 247
211 254 267 252 149 221 180 77 87 95 49 165 148 214 105 85 85 104 102 102 134 134 134 133 142 154 155 168 203 212 229 251 253 255 255 252 256 258 265 269 269 273 268 258
175 235 176 202 193 177 126 160 160 126 126 193 196 131 112 115 109 104 104 90 88 91 114 105 99 107 111 106 96 155 162 173 246 262 251 251 252 258 261 261 261 275 273 267
151 220 9 303 242 340 169 131 109 108 154 127 162 139 157 141 118 106 100 98 89 90 91 91 89 86 84 90 135 163 200 225 203 200 219 239 259 255 261 268 266 270 289 298
174 193 75 312 273 332 281 150 141 142 203 161 142 117 126 116 108 100 102 100 96 96 98 99 101 102 100 110 130 222 246 266 260 260 261 295 303 303 288 280 280 297 315 332
148 121 84 262 324 323 225 176 168 185 181 158 128 145 123 106 105 107 104 105 107 106 104 106 105 102 126 135 106 233 280 300 305 314 324 316 319 321 322 322 313 307 329 329
166 138 115 260 315 263 178 96 146 119 111 115 117 113 108 109 105 110 117 117 114 115 116 119 120 121 111 99 113 94 65 71 53 43 34 29 17 7 358 352 349 345 337 331
171 152 148 135 203 268 185 169 117 132 150 130 116 109 109 107 103 103 122 125 123 122 126 120 120 119 108 91 81 79 75 76 69 65 56 42 29 20 16 12 4 357 350 350
179 155 129 136 181 225 213 172 133 104 105 133 126 127 126 119 113 139 132 131 130 134 140 134 125 119 105 98 89 84 77 74 75 68 56 44 33 31 30 31 29 22 11 9
171 183 177 193 198 278 234 144 119 96 208 145 141 142 140 134 144 142 142 138 143 146 152 147 124 111 105 102 79 81 78 73 70 59 45 36 31 44 45 44 41 38 46 52
133 142 189 170 147 246 311 155 135 189 145 146 139 146 140 132 136 145 150 153 154 152 149 131 118 114 112 95 91 94 84 71 60 46 31 51 65 54 48 43 47 50 49 51
202 165 176 167 204 190 120 114 135 135 126 131 133 137 137 135 140 145 149 154 149 140 135 135 132 132 128 93 97 104 102 103 73 61 61 67 80 54 53 58 57 51 51 51
209 164 165 57 290 140 128 131 127 133 136 137 139 139 143 140 144 146 147 149 150 145 138 140 138 132 119 105 100 94 92 81 79 72 59 77 72 57 51 49 48 45 43 45
190 130 177 233 292 140 160 146 142 134 140 138 144 146 145 147 148 151 152 154 151 147 159 163 157 147 134 120 111 101 89 90 110 87 70 57 45 41 36 24 28 31 33 34
33 345 138 221 163 139 163 148 149 140 145 148 146 145 152 155 152 154 152 153 157 163 169 162 148 135 122 128 119 120 118 99 72 83 93 357 348 8 4 360 14 30 52 49